Location: Smoky Mountain Stargaze
(35.4252°N, 83.3329°W)
Time: 05:58:40
(UTC-04:00)

Amateur Radio Satellites - All Passes

Search period start: 20 September 2014 05:28
Search period end: 21 September 2014 05:28
Location: Smoky Mountain Stargaze, 35.4252°N, 83.3329°W

Satellite Date Start Highest point End Downlink Frequencies (MHz)
Time Altitude Azimuth
PANSAT 20 Sep 05:36:08 05:39:04 21° 192° (SSW) 05:42:00 not established
JAS-1B 20 Sep 05:38:29 05:40:01 11° 301° (WNW) 05:41:33 435.800 - 435.900 CW/SSB
JAS-2 20 Sep 05:48:51 05:50:47 11° 92° (E) 05:52:46 435.800 - 435.900 CW/SSB, 435.910 FM
Gurwin Techsat 1B 20 Sep 06:05:04 06:06:39 11° 298° (WNW) 06:08:15 435.225 FM
KITSAT 1 20 Sep 06:24:26 06:32:12 54° 249° (WSW) 06:39:57 435.175 FM
AO-7 20 Sep 06:25:12 06:33:28 74° 290° (WNW) 06:41:42 29.400 - 29.500 MHz
SO-50 20 Sep 06:36:08 06:37:17 11° 43° (NE) 06:38:25 436.795 FM
Uosat F 20 Sep 06:47:15 06:51:39 31° 291° (WNW) 06:56:02 435.120 FM
OPAL 20 Sep 06:55:04 06:57:33 14° 266° (W) 07:00:04 ?
JAS-2 20 Sep 07:30:02 07:36:13 89° 104° (ESE) 07:43:14 435.800 - 435.900 CW/SSB, 435.910 FM
STRAND 1 20 Sep 07:33:49 07:38:54 81° 75° (ENE) 07:44:00 ?
Hamsat 20 Sep 07:34:37 07:38:52 76° 283° (WNW) 07:43:02 145.90 MHz
RS-15 20 Sep 07:38:35 07:46:59 24° 324° (NW) 07:55:26 29.354 - 29.394 USB, Beacon 29.352 USB
SO-50 20 Sep 08:13:44 08:18:35 80° 60° (ENE) 08:23:27 436.795 FM
AO-7 20 Sep 08:20:56 08:24:50 14° 308° (NW) 08:28:45 29.400 - 29.500 MHz
MaSat-1 20 Sep 08:24:51 08:29:28 39° 107° (ESE) 08:34:06 437.345 MHz
SO-67 20 Sep 08:42:18 08:45:45 84° 282° (WNW) 08:49:12 435.3500 MHz FM
JAS-2 20 Sep 09:17:55 09:20:40 13° 297° (WNW) 09:23:33 435.800 - 435.900 CW/SSB, 435.910 FM
ISS 20 Sep 09:43:51 09:46:55 34° 36° (NE) 09:49:58 145.800 FM
UOSAT-12 20 Sep 09:48:31 09:53:11 59° 58° (ENE) 09:57:46 437.025 FM, 437.400 FM
RS-15 20 Sep 10:01:57 10:05:27 12° 0° (N) 10:08:57 29.354 - 29.394 USB, Beacon 29.352 USB
MaSat-1 20 Sep 10:02:20 10:06:18 23° 302° (WNW) 10:10:15 437.345 MHz
HO-68 20 Sep 10:23:36 10:30:42 61° 103° (ESE) 10:37:46 435.675 MHz FM
FUNcube-1 20 Sep 10:39:56 10:41:12 11° 91° (E) 10:42:27 145.950 - 145.970 MHz USB
Oscar 11 20 Sep 10:45:52 10:49:49 33° 98° (E) 10:53:43 145.825 FM, Beacon 2401.500 USB
UKube-1 20 Sep 11:02:57 11:07:19 75° 102° (ESE) 11:11:40 145.840 MHz, 145.915 MHz
ISS 20 Sep 11:20:59 11:23:27 19° 231° (SW) 11:25:53 145.800 FM
UOSAT-12 20 Sep 11:30:46 11:32:46 13° 253° (WSW) 11:34:45 437.025 FM, 437.400 FM
PCSat 20 Sep 11:34:56 11:38:30 18° 105° (ESE) 11:42:04 145.825 MHz
HO-68 20 Sep 12:12:26 12:17:50 24° 299° (WNW) 12:23:14 435.675 MHz FM
FUNcube-1 20 Sep 12:13:22 12:17:55 59° 285° (WNW) 12:22:23 145.950 - 145.970 MHz USB
RS-15 20 Sep 12:15:15 12:23:53 25° 37° (NE) 12:32:42 29.354 - 29.394 USB, Beacon 29.352 USB
Oscar 11 20 Sep 12:22:46 12:25:43 18° 292° (WNW) 12:28:39 145.825 FM, Beacon 2401.500 USB
Sapphire 20 Sep 12:49:02 12:54:25 85° 115° (ESE) 12:59:52 437.095 MHz 1200 baud AX-25 AFSK
Oscar 10/S400 20 Sep 13:07:05 13:26:02 16° 157° (SSE) 13:37:37 145.825 - 145.975 CW/USB, Beacon 145.810 USB
PCSat 20 Sep 13:16:11 13:21:26 51° 300° (WNW) 13:26:44 145.825 MHz
Oscar 16 20 Sep 13:23:34 13:27:36 23° 67° (ENE) 13:31:39 437.025 USB, Beacon 2401.1428
AO-Echo 20 Sep 13:33:15 13:34:24 11° 64° (ENE) 13:35:33 ?
Gurwin Techsat 1B 20 Sep 14:05:22 14:06:16 10° 61° (ENE) 14:07:10 435.225 FM
ITAMSAT 1 20 Sep 14:08:32 14:12:42 26° 68° (ENE) 14:16:54 435.822 SSB
Uribyol 2 20 Sep 14:12:13 14:16:38 30° 69° (ENE) 14:21:05 436.500 FM
Oscar 19 20 Sep 14:22:25 14:27:36 86° 76° (ENE) 14:32:50 437.125 CW, 437.150 USB
JAS-1B 20 Sep 14:23:59 14:32:28 57° 72° (ENE) 14:39:37 435.800 - 435.900 CW/SSB
RS-15 20 Sep 14:26:49 14:38:03 84° 61° (ENE) 14:49:45 29.354 - 29.394 USB, Beacon 29.352 USB
Sapphire 20 Sep 14:35:52 14:38:32 14° 313° (NW) 14:41:13 437.095 MHz 1200 baud AX-25 AFSK
TMSAT-1 20 Sep 14:39:08 14:42:29 17° 65° (ENE) 14:45:49 436.925 FM
AO-27 20 Sep 14:42:44 14:47:47 57° 73° (ENE) 14:52:51 436.795 MHz FM
Oscar 16 20 Sep 15:01:56 15:06:42 37° 262° (W) 15:11:30 437.025 USB, Beacon 2401.1428
AO-Echo 20 Sep 15:07:51 15:12:35 68° 258° (WSW) 15:17:16 ?
AO-7 20 Sep 15:30:35 15:36:43 24° 57° (ENE) 15:42:50 29.400 - 29.500 MHz
Gurwin Techsat 1B 20 Sep 15:40:07 15:45:26 87° 256° (WSW) 15:50:46 435.225 FM
ITAMSAT 1 20 Sep 15:47:24 15:52:01 33° 262° (W) 15:56:39 435.822 SSB
Uribyol 2 20 Sep 15:51:38 15:56:01 28° 263° (W) 16:00:27 436.500 FM
JAS-1B 20 Sep 16:15:55 16:23:04 28° 263° (W) 16:29:23 435.800 - 435.900 CW/SSB
TMSAT-1 20 Sep 16:16:47 16:21:55 53° 260° (W) 16:27:06 436.925 FM
Uosat F 20 Sep 16:19:20 16:23:26 26° 68° (ENE) 16:27:32 435.120 FM
AO-27 20 Sep 16:24:56 16:27:36 14° 268° (W) 16:30:18 436.795 MHz FM
Saudisat 1A 20 Sep 16:40:25 16:43:34 20° 110° (ESE) 16:46:44 436.775 MHz
RS-15 20 Sep 16:41:21 16:49:06 22° 258° (WSW) 16:57:05 29.354 - 29.394 USB, Beacon 29.352 USB
AO-7 20 Sep 17:20:25 17:28:42 72° 255° (WSW) 17:37:00 29.400 - 29.500 MHz
OPAL 20 Sep 17:27:18 17:31:07 21° 96° (E) 17:34:53 ?
JAS-2 20 Sep 17:41:35 17:45:36 23° 67° (ENE) 17:49:34 435.800 - 435.900 CW/SSB, 435.910 FM
Uosat F 20 Sep 17:57:42 18:02:03 30° 263° (W) 18:06:27 435.120 FM
Saudisat 1A 20 Sep 18:18:51 18:22:53 35° 305° (NW) 18:26:57 436.775 MHz
MaSat-1 20 Sep 18:21:17 18:24:37 32° 60° (ENE) 18:27:30 437.345 MHz
Hamsat 20 Sep 18:24:34 18:28:46 50° 75° (ENE) 18:33:00 145.90 MHz
KITSAT 1 20 Sep 18:54:44 19:01:36 32° 106° (ESE) 19:08:28 435.175 FM
OPAL 20 Sep 19:05:19 19:10:06 40° 291° (WNW) 19:14:48 ?
SO-67 20 Sep 19:13:04 19:15:30 18° 71° (ENE) 19:17:57 435.3500 MHz FM
AO-7 20 Sep 19:21:48 19:22:37 10° 271° (W) 19:23:27 29.400 - 29.500 MHz
JAS-2 20 Sep 19:25:43 19:30:32 34° 262° (W) 19:35:14 435.800 - 435.900 CW/SSB, 435.910 FM
STRAND 1 20 Sep 19:47:50 19:52:31 35° 98° (E) 19:57:10 ?
Hamsat 20 Sep 20:03:28 20:04:58 12° 268° (W) 20:06:29 145.90 MHz
SO-67 20 Sep 20:45:52 20:48:24 19° 265° (W) 20:50:55 435.3500 MHz FM
KITSAT 1 20 Sep 20:48:47 20:56:36 52° 303° (WNW) 21:04:28 435.175 FM
HO-68 20 Sep 20:49:20 20:55:32 34° 65° (ENE) 21:01:45 435.675 MHz FM
STRAND 1 20 Sep 21:27:25 21:31:28 24° 292° (WNW) 21:35:32 ?
Oscar 11 20 Sep 21:38:43 21:41:47 19° 68° (ENE) 21:44:52 145.825 FM, Beacon 2401.500 USB
Sapphire 20 Sep 21:40:23 21:45:21 35° 57° (ENE) 21:50:16 437.095 MHz 1200 baud AX-25 AFSK
UKube-1 20 Sep 21:55:29 21:59:34 42° 73° (ENE) 22:03:40 145.840 MHz, 145.915 MHz
PCSat 20 Sep 22:07:00 22:12:24 65° 62° (ENE) 22:17:46 145.825 MHz
SO-50 20 Sep 22:25:55 22:30:13 52° 116° (ESE) 22:34:39 436.795 FM
HO-68 20 Sep 22:36:23 22:43:01 42° 261° (W) 22:49:43 435.675 MHz FM
KITSAT 1 20 Sep 22:51:10 22:54:07 12° 327° (NNW) 22:57:05 435.175 FM
FUNcube-1 20 Sep 23:06:20 23:10:42 76° 76° (ENE) 23:15:13 145.950 - 145.970 MHz USB
Oscar 11 20 Sep 23:13:48 23:17:43 32° 263° (W) 23:21:39 145.825 FM, Beacon 2401.500 USB
Sapphire 20 Sep 23:24:03 23:28:35 27° 253° (WSW) 23:33:05 437.095 MHz 1200 baud AX-25 AFSK
UKube-1 20 Sep 23:33:44 23:35:56 14° 267° (W) 23:38:08 145.840 MHz, 145.915 MHz
PCSat 20 Sep 23:52:32 23:55:11 14° 257° (WSW) 23:57:50 145.825 MHz
UOSAT-12 20 Sep 23:56:57 00:01:08 36° 113° (ESE) 00:05:24 437.025 FM, 437.400 FM
SO-50 21 Sep 00:08:15 00:11:06 16° 313° (NW) 00:14:01 436.795 FM
UOSAT-12 21 Sep 01:37:39 01:41:21 23° 310° (NW) 01:45:07 437.025 FM, 437.400 FM
PANSAT 21 Sep 01:51:28 01:54:25 21° 168° (SSE) 01:57:22 not established
JAS-1B 21 Sep 02:16:30 02:17:51 11° 91° (E) 02:19:13 435.800 - 435.900 CW/SSB
ISS 21 Sep 02:23:41 02:26:57 58° 135° (SE) 02:30:14 145.800 FM
ITAMSAT 1 21 Sep 02:26:38 02:27:58 11° 91° (E) 02:29:18 435.822 SSB
Uribyol 2 21 Sep 02:29:30 02:31:55 13° 92° (E) 02:34:19 436.500 FM
Oscar 19 21 Sep 02:37:29 02:42:18 39° 98° (E) 02:47:04 437.125 CW, 437.150 USB
RS-15 21 Sep 02:42:00 02:46:27 13° 98° (E) 02:50:51 29.354 - 29.394 USB, Beacon 29.352 USB
Saudisat 1A 21 Sep 02:47:54 02:52:20 74° 60° (ENE) 02:56:43 436.775 MHz
KITSAT 1 21 Sep 02:53:04 02:55:15 11° 32° (NNE) 02:57:27 435.175 FM
AO-27 21 Sep 02:59:23 03:03:45 26° 96° (E) 03:08:05 436.795 MHz FM
Oscar 16 21 Sep 03:16:18 03:21:29 81° 284° (WNW) 03:26:38 437.025 USB, Beacon 2401.1428
AO-Echo 21 Sep 03:17:43 03:22:27 48° 100° (E) 03:27:18 ?
PANSAT 21 Sep 03:30:48 03:34:08 28° 180° (S) 03:37:28 not established
Gurwin Techsat 1B 21 Sep 03:59:38 04:04:46 48° 100° (E) 04:09:53 435.225 FM
ISS 21 Sep 04:01:43 04:03:55 16° 331° (NNW) 04:06:06 145.800 FM
ITAMSAT 1 21 Sep 04:02:42 04:07:55 73° 285° (WNW) 04:13:06 435.822 SSB
JAS-1B 21 Sep 04:03:27 04:09:07 71° 286° (WNW) 04:14:54 435.800 - 435.900 CW/SSB
Uribyol 2 21 Sep 04:06:35 04:11:44 62° 286° (WNW) 04:16:53 436.500 FM
Oscar 19 21 Sep 04:17:29 04:21:21 22° 293° (WNW) 04:25:11 437.125 CW, 437.150 USB
TMSAT-1 21 Sep 04:35:34 04:40:54 80° 103° (ESE) 04:46:12 436.925 FM
AO-27 21 Sep 04:38:37 04:43:12 32° 291° (WNW) 04:47:47 436.795 MHz FM
OPAL 21 Sep 04:39:00 04:43:21 28° 66° (ENE) 04:47:44 ?
KITSAT 1 21 Sep 04:45:11 04:52:56 47° 56° (NE) 05:00:38 435.175 FM
RS-15 21 Sep 04:45:49 04:56:54 76° 115° (ESE) 05:07:46 29.354 - 29.394 USB, Beacon 29.352 USB
AO-Echo 21 Sep 04:57:48 05:00:50 17° 294° (WNW) 05:03:56 ?
PANSAT 21 Sep 05:10:58 05:13:51 20° 193° (SSW) 05:16:43 not established
